Location: *
(32.3758°S, 63.1185°E)
Time: 16:44:00
(UTC+00:00)

SL-16 R/B - Pass Details

Date: 02 June 2023
Orbit: 840 x 849 km, 71.0° (Epoch: 22 September)

Event Time Altitude Azimuth Distance (km) Brightness Sun altitude
Rises 13:59:23 0° 187° (S) 3,445 5.3 -14.5°
Reaches altitude 10° 14:02:17 10° 174° (S) 2,502 4.4 -15.0°
Maximum altitude 14:07:01 26° 119° (ESE) 1,635 3.1 -16.0°
Enters shadow 14:07:48 25° 106° (ESE) 1,664 3.1 -16.2°
